EW9457 Weather Reports


Display with metric or nautical units.
time (UTC)temp
F
wind
direction
speed
MPH
gust
MPH
rain 1hr
in
rain 24hr
in
rain mn
in
humidity
%
barometer
mb
20191209203704 46 282 6.0 13.0 0.00 0.05 0.05 94 996.7
20191209203205 46 259 5.0 13.0 0.00 0.05 0.05 94 996.6
20191209202705 46 276 4.0 18.0 0.00 0.05 0.05 94 996.5
20191209202204 46 257 5.0 20.0 0.00 0.05 0.05 94 996.4
20191209201705 46 237 8.0 20.0 0.00 0.05 0.05 94 996.4
20191209201205 46 241 8.0 20.0 0.00 0.05 0.05 94 996.4
20191209200704 47 252 7.0 15.0 0.00 0.05 0.05 94 996.5
20191209194204 47 200 7.0 16.0 0.00 0.05 0.05 94 996.3
20191209193704 47 251 7.0 16.0 0.00 0.05 0.05 94 996.2
20191209193205 47 213 7.0 16.0 0.00 0.05 0.05 94 996.0
20191209192705 47 220 5.0 14.0 0.00 0.05 0.05 94 995.9
20191209192204 47 224 3.0 14.0 0.00 0.05 0.05 94 995.9
20191209191705 47 239 3.0 14.0 0.00 0.05 0.05 94 995.9
20191209191205 47 218 4.0 14.0 0.00 0.05 0.05 94 995.8
20191209190704 47 200 3.0 17.0 0.00 0.05 0.05 94 995.8
20191209190205 47 224 3.0 17.0 0.00 0.05 0.05 94 995.8
20191209185704 47 201 1.0 1.0 0.00 0.05 0.05 94 995.8
20191209185204 47 232 0.0 6.0 0.00 0.05 0.05 94 995.8
20191209184705 47 238 1.0 14.0 0.00 0.05 0.05 94 995.9
20191209184204 46 256 1.0 14.0 0.00 0.05 0.05 94 996.0
20191209183705 46 224 2.0 14.0 0.00 0.05 0.05 94 996.2
20191209183204 46 234 3.0 14.0 0.00 0.05 0.05 94 996.3
20191209182704 46 166 2.0 9.0 0.00 0.05 0.05 94 996.3
20191209182205 46 245 1.0 12.0 0.00 0.05 0.05 94 996.4
20191209181705 46 207 1.0 12.0 0.00 0.05 0.05 94 996.5
20191209181204 46 220 2.0 13.0 0.00 0.05 0.05 94 996.5
20191209180704 46 253 2.0 13.0 0.00 0.05 0.05 94 996.6
20191209180204 46 221 1.0 13.0 0.00 0.05 0.05 94 996.6
20191209175704 46 187 1.0 11.0 0.00 0.05 0.05 94 996.6
20191209175204 46 221 1.0 11.0 0.00 0.05 0.05 94 996.8
20191209174705 46 216 0.0 12.0 0.00 0.05 0.05 94 996.8
20191209174204 46 238 1.0 12.0 0.00 0.05 0.05 94 996.8
20191209173705 46 209 2.0 12.0 0.00 0.05 0.05 94 996.8
20191209173205 46 203 1.0 9.0 0.00 0.05 0.05 94 996.9
20191209172705 46 227 2.0 9.0 0.00 0.05 0.05 94 996.9
20191209172204 46 216 3.0 13.0 0.00 0.05 0.05 94 996.9
20191209171704 46 181 4.0 13.0 0.00 0.05 0.05 94 997.0
20191209171204 46 220 3.0 13.0 0.00 0.05 0.05 94 997.2
20191209170704 46 197 1.0 13.0 0.00 0.05 0.05 94 997.4
20191209170204 46 197 1.0 13.0 0.00 0.05 0.05 94 997.5
20191209165704 46 201 1.0 4.0 0.00 0.05 0.05 94 997.7
20191209165204 46 188 0.0 8.0 0.00 0.05 0.05 94 997.7
20191209164704 46 222 0.0 8.0 0.00 0.05 0.05 94 997.9
20191209164205 46 242 0.0 8.0 0.00 0.05 0.05 94 997.9
20191209163705 46 205 0.0 0.0 0.00 0.05 0.05 94 998.1
20191209163204 46 200 0.0 0.0 0.00 0.05 0.05 94 998.2
20191209162705 46 231 0.0 1.0 0.00 0.05 0.05 94 998.3
20191209162204 46 222 0.0 1.0 0.00 0.05 0.05 94 998.4
20191209161705 45 238 0.0 7.0 0.00 0.05 0.05 94 998.4
20191209161205 46 229 1.0 7.0 0.00 0.05 0.05 94 998.6
20191209160704 45 200 1.0 7.0 0.00 0.05 0.05 94 998.6
20191209160205 45 222 0.0 0.0 0.00 0.05 0.05 94 998.6
20191209155704 45 205 0.0 11.0 0.00 0.05 0.05 94 998.6
20191209155204 45 202 1.0 11.0 0.00 0.05 0.05 94 998.6
20191209154705 45 195 2.0 11.0 0.00 0.05 0.05 94 998.6
20191209154204 45 200 1.0 10.0 0.00 0.05 0.05 94 998.6
20191209153705 45 195 0.0 11.0 0.00 0.05 0.05 94 998.6
20191209153204 45 201 0.0 11.0 0.01 0.05 0.05 94 998.7
20191209152704 45 205 1.0 11.0 0.01 0.05 0.05 94 998.7
20191209152205 45 231 1.0 11.0 0.01 0.05 0.05 94 998.8
20191209151704 45 208 1.0 11.0 0.01 0.05 0.05 94 998.8
20191209151204 45 209 1.0 5.0 0.01 0.05 0.05 94 998.7
20191209150704 45 232 0.0 0.0 0.01 0.05 0.05 94 998.8
20191209150204 45 213 0.0 0.0 0.01 0.05 0.05 94 998.8
20191209145704 45 222 0.0 8.0 0.01 0.05 0.05 94 998.8
20191209145205 45 191 1.0 8.0 0.01 0.05 0.05 94 998.8
20191209144704 45 182 1.0 8.0 0.01 0.05 0.05 94 998.8
20191209144204 45 186 1.0 12.0 0.01 0.05 0.05 94 998.7
20191209143704 45 195 1.0 12.0 0.00 0.04 0.04 94 998.8
20191209143205 45 224 1.0 8.0 0.00 0.04 0.04 94 998.8
20191209142705 45 230 2.0 8.0 0.00 0.04 0.04 94 998.9
20191209142205 45 197 1.0 7.0 0.00 0.04 0.04 94 998.9
20191209141704 45 216 0.0 7.0 0.00 0.04 0.04 94 998.9
20191209141204 45 226 0.0 10.0 0.00 0.04 0.04 94 999.0
20191209140704 45 243 1.0 10.0 0.00 0.04 0.04 94 999.0
20191209140204 45 220 3.0 10.0 0.00 0.04 0.04 94 999.1
20191209135705 45 207 4.0 8.0 0.00 0.04 0.04 94 999.1
20191209135204 45 200 1.0 0.0 0.00 0.04 0.04 94 999.1
20191209134705 45 209 0.0 0.0 0.00 0.04 0.04 94 999.1
20191209134204 45 193 0.0 9.0 0.00 0.04 0.04 94 999.2
20191209133704 45 191 1.0 9.0 0.00 0.04 0.04 94 999.1
20191209133204 45 216 1.0 8.0 0.00 0.04 0.04 94 999.3
20191209132704 45 183 1.0 8.0 0.00 0.04 0.04 94 999.3
20191209132204 45 208 1.0 8.0 0.00 0.04 0.04 94 999.3
20191209131704 45 174 1.0 8.0 0.00 0.04 0.04 94 999.3
20191209131204 45 218 1.0 9.0 0.00 0.04 0.04 94 999.3
20191209130704 45 205 1.0 11.0 0.00 0.04 0.04 94 999.5
20191209130205 45 212 2.0 11.0 0.00 0.04 0.04 94 999.5
20191209125704 45 222 2.0 9.0 0.00 0.04 0.04 94 999.6
20191209125204 45 205 1.0 6.0 0.00 0.04 0.04 94 999.6
20191209124704 45 197 0.0 5.0 0.00 0.04 0.04 94 999.6
20191209124204 45 205 0.0 5.0 0.00 0.04 0.04 94 999.7
20191209123704 45 205 0.0 0.0 0.00 0.04 0.04 94 999.8
20191209123204 45 213 0.0 0.0 0.00 0.04 0.04 94 999.8
20191209122704 45 227 0.0 0.0 0.00 0.04 0.04 94 999.8
20191209122204 45 193 0.0 7.0 0.00 0.04 0.04 94 999.7
20191209121704 45 218 0.0 7.0 0.00 0.04 0.04 94 999.8
20191209121204 45 209 0.0 7.0 0.00 0.04 0.04 94 999.8
20191209120704 45 186 0.0 5.0 0.01 0.04 0.04 94 999.8
20191209120204 45 186 0.0 0.0 0.01 0.04 0.04 94 999.8
20191209115705 45 214 0.0 4.0 0.01 0.04 0.04 94 999.9
20191209115204 45 195 0.0 4.0 0.01 0.04 0.04 94 1000.1
20191209114704 45 195 0.0 4.0 0.01 0.04 0.04 94 1000.1
20191209114204 45 212 0.0 0.0 0.01 0.04 0.04 93 1000.2
20191209113704 45 208 0.0 0.0 0.01 0.04 0.04 93 1000.3
20191209113205 45 195 0.0 0.0 0.01 0.04 0.04 93 1000.4
20191209112704 45 209 0.0 0.0 0.01 0.04 0.04 93 1000.5
20191209112204 45 201 0.0 6.0 0.01 0.04 0.04 93 1000.4
20191209111704 45 225 0.0 6.0 0.01 0.04 0.04 93 1000.4
20191209111204 45 205 1.0 7.0 0.01 0.04 0.04 93 1000.4
20191209110705 45 207 1.0 7.0 0.00 0.03 0.03 93 1000.5
20191209110204 45 180 0.0 7.0 0.00 0.03 0.03 93 1000.5
20191209105704 45 209 0.0 5.0 0.00 0.03 0.03 93 1000.5
20191209105204 45 179 0.0 4.0 0.00 0.03 0.03 93 1000.7
20191209104705 45 207 0.0 4.0 0.00 0.03 0.03 93 1000.7
20191209104204 45 214 0.0 6.0 0.01 0.03 0.03 93 1000.9
20191209103704 45 187 0.0 8.0 0.01 0.03 0.03 93 1000.7
20191209103204 45 201 1.0 8.0 0.01 0.03 0.03 93 1000.9
20191209102705 45 209 0.0 8.0 0.01 0.03 0.03 93 1000.9
20191209102204 45 189 0.0 7.0 0.01 0.03 0.03 93 1001.1
20191209101704 45 182 0.0 7.0 0.01 0.03 0.03 93 1001.1
20191209101204 45 181 0.0 7.0 0.01 0.03 0.03 93 1001.2
20191209100705 45 196 0.0 0.0 0.01 0.03 0.03 93 1001.2
20191209100204 45 180 0.0 0.0 0.01 0.03 0.03 93 1001.2
20191209095704 45 195 0.0 0.0 0.01 0.03 0.03 93 1001.4
20191209095205 45 189 0.0 0.0 0.02 0.03 0.03 93 1001.5
20191209094704 45 192 0.0 0.0 0.01 0.02 0.02 93 1001.5
20191209094205 45 186 0.0 0.0 0.01 0.02 0.02 93 1001.6
20191209093705 45 174 0.0 0.0 0.01 0.02 0.02 93 1001.6
20191209093204 45 175 0.0 0.0 0.02 0.02 0.02 93 1001.9
20191209092705 45 183 0.0 0.0 0.02 0.02 0.02 93 1001.6
20191209092206 45 188 0.0 0.0 0.02 0.02 0.02 93 1001.8
20191209091706 45 163 0.0 6.0 0.02 0.02 0.02 92 1002.0
20191209091205 45 178 0.0 6.0 0.02 0.02 0.02 92 1002.0
20191209090704 45 178 0.0 6.0 0.02 0.02 0.02 92 1002.2
20191209090204 45 164 0.0 2.0 0.02 0.02 0.02 92 1002.3
20191209085704 45 164 0.0 2.0 0.01 0.01 0.01 92 1002.5
20191209085205 45 185 0.0 0.0 0.01 0.01 0.01 92 1002.5
20191209084704 45 183 0.0 0.0 0.01 0.01 0.01 92 1002.6
20191209084204 45 188 0.0 0.0 0.01 0.01 0.01 92 1002.8
20191209083704 45 209 0.0 4.0 0.00 0.00 0.00 92 1002.9
20191209083204 45 193 0.0 4.0 0.00 0.00 0.00 92 1003.0
20191209082704 45 212 0.0 4.0 0.00 0.00 0.00 92 1003.0
20191209082204 45 205 0.0 1.0 0.00 0.00 0.00 92 1003.2
20191209081704 45 182 0.0 0.0 0.00 0.00 0.00 92 1003.4
20191209081205 45 188 0.0 0.0 0.00 0.00 0.00 92 1003.4
20191209080705 45 182 0.0 0.0 0.00 0.00 0.00 92 1003.5
20191209080204 45 182 0.0 0.0 0.00 0.00 0.00 92 1003.6
20191209075704 45 165 0.0 0.0 0.00 0.00 0.00 92 1003.6
20191209075205 45 164 0.0 0.0 0.00 0.00 0.00 92 1003.7
20191209074704 45 156 0.0 0.0 0.00 0.00 0.00 91 1003.8
20191209074205 45 154 0.0 0.0 0.00 0.00 0.00 91 1003.9
20191209073704 45 149 0.0 0.0 0.00 0.00 0.00 91 1003.9
20191209073205 45 149 0.0 0.0 0.00 0.00 0.00 91 1003.9
20191209072704 45 149 0.0 0.0 0.00 0.00 0.00 91 1003.9
20191209072204 45 166 0.0 0.0 0.00 0.00 0.00 91 1004.0
20191209071704 45 166 0.0 0.0 0.00 0.00 0.00 91 1004.0
20191209071205 45 166 0.0 0.0 0.00 0.00 0.00 91 1004.1
20191209070705 45 162 0.0 0.0 0.00 0.00 0.00 91 1004.1
20191209070204 44 163 0.0 0.0 0.00 0.00 0.00 91 1004.2
20191209065704 44 161 0.0 0.0 0.00 0.00 0.00 91 1004.3
20191209065205 44 161 0.0 0.0 0.00 0.00 0.00 91 1004.4
20191209064705 44 166 0.0 0.0 0.00 0.00 0.00 91 1004.4
20191209064204 44 162 0.0 0.0 0.00 0.00 0.00 91 1004.5
20191209063704 44 166 0.0 0.0 0.00 0.00 0.00 91 1004.6
20191209063204 44 164 0.0 0.0 0.00 0.00 0.00 91 1004.7
20191209062704 44 152 0.0 0.0 0.00 0.00 0.00 91 1004.9
20191209062204 44 159 0.0 0.0 0.00 0.00 0.00 91 1004.9
20191209061705 44 158 0.0 0.0 0.00 0.00 0.00 91 1005.1
20191209061205 44 158 0.0 0.0 0.00 0.00 0.00 91 1005.3
20191209060705 44 151 0.0 0.0 0.00 0.00 0.00 91 1005.3
20191209060204 44 151 0.0 0.0 0.00 0.00 0.00 91 1005.4
20191209055704 44 159 0.0 0.0 0.00 0.00 0.00 91 1005.6
20191209055204 45 167 0.0 0.0 0.00 0.00 0.00 91 1005.8
20191209054704 45 172 0.0 0.0 0.00 0.00 0.00 91 1005.9
20191209054204 45 159 0.0 0.0 0.00 0.00 0.00 91 1006.0
20191209053705 45 173 0.0 0.0 0.00 0.00 0.00 91 1006.1
20191209053205 45 168 0.0 0.0 0.00 0.00 0.00 91 1006.2
20191209052705 45 148 0.0 2.0 0.00 0.00 0.00 91 1006.2
20191209052205 45 165 0.0 2.0 0.00 0.00 0.00 91 1006.3
20191209051704 45 157 0.0 2.0 0.00 0.00 0.00 91 1006.4
20191209051204 45 163 0.0 0.0 0.00 0.00 0.00 91 1006.4
20191209050705 45 170 0.0 0.0 0.00 0.00 0.00 91 1006.5
20191209050204 45 155 0.0 0.0 0.00 0.00 0.00 91 1006.5
20191209045704 45 163 0.0 0.0 0.00 0.00 0.00 91 1006.6
20191209045204 45 151 0.0 0.0 0.00 0.00 0.00 91 1006.8
20191209044704 45 175 0.0 0.0 0.00 0.00 0.00 91 1006.8
20191209044204 45 147 0.0 0.0 0.00 0.00 0.00 91 1006.8
20191209043704 45 142 0.0 0.0 0.00 0.00 0.00 91 1006.9
20191209043204 45 155 0.0 0.0 0.00 0.00 0.00 91 1007.0
20191209042704 45 139 0.0 0.0 0.00 0.00 0.00 91 1007.1
20191209042204 45 198 0.0 0.0 0.00 0.00 0.00 91 1007.2
20191209041704 45 202 0.0 0.0 0.00 0.00 0.00 91 1007.3
20191209041205 45 202 0.0 0.0 0.00 0.00 0.00 91 1007.4
20191209040704 45 202 0.0 0.0 0.00 0.00 0.00 91 1007.5
20191209040205 45 202 0.0 0.0 0.00 0.00 0.00 91 1007.6
20191209035705 45 202 0.0 0.0 0.00 0.00 0.00 91 1007.6
20191209035205 45 202 0.0 0.0 0.00 0.00 0.00 91 1007.6
20191209034705 45 202 0.0 0.0 0.00 0.00 0.00 91 1007.7
20191209034205 44 202 0.0 0.0 0.00 0.00 0.00 91 1007.6
20191209033705 44 202 0.0 0.0 0.00 0.00 0.00 91 1007.6
20191209033204 44 202 0.0 0.0 0.00 0.00 0.00 91 1007.6
20191209032705 44 202 0.0 0.0 0.00 0.00 0.00 91 1007.7
20191209032205 44 202 0.0 0.0 0.00 0.00 0.00 91 1007.8
20191209031704 43 202 0.0 0.0 0.00 0.00 0.00 91 1007.8
20191209031204 43 202 0.0 0.0 0.00 0.00 0.00 91 1007.8
20191209030704 43 202 0.0 0.0 0.00 0.00 0.00 91 1007.8
20191209030204 43 202 0.0 0.0 0.00 0.00 0.00 91 1007.8
20191209025704 43 202 0.0 0.0 0.00 0.00 0.00 91 1007.8
20191209025206 43 202 0.0 0.0 0.00 0.00 0.00 91 1007.8
20191209024704 43 202 0.0 0.0 0.00 0.00 0.00 91 1007.8
20191209024204 43 202 0.0 0.0 0.00 0.00 0.00 91 1007.9
20191209023705 43 202 0.0 0.0 0.00 0.00 0.00 91 1007.8
20191209023204 43 202 0.0 0.0 0.00 0.00 0.00 91 1008.0
20191209022704 43 202 0.0 0.0 0.00 0.00 0.00 90 1008.1
20191209022204 43 202 0.0 0.0 0.00 0.00 0.00 90 1008.1
20191209021705 43 202 0.0 0.0 0.00 0.00 0.00 90 1008.1
20191209021205 43 202 0.0 0.0 0.00 0.00 0.00 90 1008.0
20191209020705 43 202 0.0 0.0 0.00 0.00 0.00 90 1008.1
20191209020204 43 202 0.0 0.0 0.00 0.00 0.00 90 1008.2
20191209015705 43 202 0.0 0.0 0.00 0.00 0.00 90 1008.3
20191209015205 43 202 0.0 0.0 0.00 0.00 0.00 90 1008.3
20191209014704 43 202 0.0 0.0 0.00 0.00 0.00 90 1008.3
20191209014205 43 202 0.0 0.0 0.00 0.00 0.00 90 1008.3
20191209013704 43 202 0.0 0.0 0.00 0.00 0.00 90 1008.5
20191209013206 43 202 0.0 0.0 0.00 0.00 0.00 90 1008.6
20191209012705 44 202 0.0 0.0 0.00 0.00 0.00 90 1008.8
20191209012205 44 202 0.0 0.0 0.00 0.00 0.00 90 1008.8
20191209011704 44 202 0.0 0.0 0.00 0.00 0.00 90 1008.8
20191209011204 44 202 0.0 0.0 0.00 0.00 0.00 90 1008.8
20191209010705 44 202 0.0 0.0 0.00 0.00 0.00 90 1008.9
20191209010205 44 202 0.0 0.0 0.00 0.00 0.00 90 1009.0
20191209005704 44 202 0.0 0.0 0.00 0.00 0.00 90 1009.0
20191209005204 44 202 0.0 0.0 0.00 0.00 0.00 90 1009.0
20191209004704 44 202 0.0 0.0 0.00 0.00 0.00 90 1009.1
20191209004205 44 202 0.0 0.0 0.00 0.00 0.00 90 1009.0
20191209003704 44 202 0.0 0.0 0.00 0.00 0.00 90 1009.0
20191209003204 44 202 0.0 0.0 0.00 0.00 0.00 90 1009.1
20191209002704 44 202 0.0 0.0 0.00 0.00 0.00 89 1009.1
20191209002204 45 202 0.0 0.0 0.00 0.00 0.00 89 1009.1
20191209001704 45 202 0.0 0.0 0.00 0.00 0.00 90 1009.2
20191209001204 45 202 0.0 0.0 0.00 0.00 0.00 90 1009.1
20191209000704 45 202 0.0 0.0 0.00 0.00 0.00 90 1009.2
20191209000204 45 202 0.0 0.0 0.00 0.00 0.00 90 1009.2
20191208235705 45 202 0.0 0.0 0.00 0.00 0.00 90 1009.2
20191208235204 45 202 0.0 0.0 0.00 0.00 0.00 89 1009.3
20191208234704 45 202 0.0 0.0 0.00 0.00 0.00 89 1009.3
20191208234204 45 202 0.0 0.0 0.00 0.00 0.00 89 1009.2
20191208233705 45 202 0.0 0.0 0.00 0.00 0.00 89 1009.2
20191208233205 45 202 0.0 0.0 0.00 0.00 0.00 89 1009.3
20191208232705 45 202 0.0 0.0 0.00 0.00 0.00 89 1009.1
20191208232204 45 202 0.0 0.0 0.00 0.00 0.00 89 1009.1
20191208231704 45 202 0.0 0.0 0.00 0.00 0.00 89 1009.2
20191208231204 45 202 0.0 0.0 0.00 0.00 0.00 89 1009.1
20191208230704 45 202 0.0 0.0 0.00 0.00 0.00 89 1009.1
20191208230204 45 202 0.0 0.0 0.00 0.00 0.00 89 1009.1
20191208225704 45 202 0.0 0.0 0.00 0.00 0.00 89 1009.0
20191208225205 45 202 0.0 0.0 0.00 0.00 0.00 89 1009.0
20191208224704 45 203 0.0 0.0 0.00 0.00 0.00 89 1009.1
20191208224205 45 203 0.0 5.0 0.00 0.00 0.00 89 1009.3
20191208223704 45 201 0.0 5.0 0.00 0.00 0.00 89 1009.2
20191208223204 45 207 0.0 5.0 0.00 0.00 0.00 89 1009.3
20191208222704 45 190 0.0 4.0 0.00 0.00 0.00 89 1009.2
20191208222204 45 193 0.0 4.0 0.00 0.00 0.00 89 1009.2
20191208221704 45 200 0.0 4.0 0.00 0.00 0.00 88 1009.2
20191208221205 45 212 0.0 6.0 0.00 0.00 0.00 88 1009.2
20191208220704 45 215 0.0 6.0 0.00 0.00 0.00 88 1009.3
20191208220205 45 205 0.0 7.0 0.00 0.00 0.00 88 1009.3
20191208215705 45 181 1.0 10.0 0.00 0.00 0.00 88 1009.2
20191208215204 45 195 1.0 10.0 0.00 0.00 0.00 88 1009.3
20191208214704 45 177 1.0 10.0 0.00 0.00 0.00 88 1009.2
20191208214204 45 195 0.0 7.0 0.00 0.00 0.00 88 1009.2
20191208213705 45 186 0.0 7.0 0.00 0.00 0.00 88 1009.3
20191208213205 45 193 1.0 9.0 0.00 0.00 0.00 88 1009.2
20191208212704 45 196 2.0 9.0 0.00 0.00 0.00 88 1009.1
20191208212204 45 205 1.0 9.0 0.00 0.00 0.00 88 1009.1
20191208211704 45 216 1.0 9.0 0.00 0.00 0.00 88 1009.2
20191208211204 45 197 1.0 9.0 0.00 0.00 0.00 88 1009.0
20191208210704 45 202 1.0 7.0 0.00 0.00 0.00 88 1009.2
20191208210204 45 216 0.0 7.0 0.00 0.00 0.00 88 1009.2
20191208205704 45 193 0.0 9.0 0.00 0.00 0.00 88 1009.1
20191208205204 45 182 1.0 9.0 0.00 0.00 0.00 88 1009.1
20191208204705 45 195 1.0 10.0 0.00 0.00 0.00 88 1009.0
20191208204205 45 221 1.0 10.0 0.00 0.00 0.00 87 1009.1